Weather History for KBHK - November, 2013

Change the Weather History Date:

Tuesday, November 26, 2013

  Actual Average Record
Temperature  
Mean Temperature 20 °F -  
Max Temperature 30 °F 34 °F 66 °F (1998)
Min Temperature 10 °F 6 °F 7 °F (2007)
Degree Days  
Heating Degree Days 45    
Moisture  
Dew Point 12 °F    
Average Humidity 69    
Maximum Humidity 84    
Minimum Humidity 38    
Precipitation  
Precipitation 0.00 in - - ()
Sea Level Pressure  
Sea Level Pressure 30.42 in    
Wind  
Wind Speed 7 mph (SE)    
Max Wind Speed 15 mph    
Max Gust Speed -    
Visibility 10 miles    
Events      
Averages and records for this station are not official NWS values.
T = Trace of Precipitation, MM = Missing Value Source: NWS Daily Summary

Daily Weather History Graph

Daily Weather History Graph

Search for Another Location

Airport or City:

Trip Planner

Search our weather history database for the weather conditions in past years. The results will help you decide how hot, cold, wet, or windy it might be!

Date:

Astronomy

Nov. 26, 2013 Rise Set
Actual Time 7:13 AM MST 4:14 PM MST
Civil Twilight 6:40 AM MST 4:48 PM MST
Nautical Twilight 6:02 AM MST 5:25 PM MST
Astronomical Twilight 5:26 AM MST 6:01 PM MST
Moon No Moon Rise 12:43 PM MST (11/26)
Length of Visible Light 10h 08m
Length of Day
9h 00m
Last Quarter, 40% of the Moon is Illuminated
Nov 26
Last Quarter
Dec 2
New
Dec 9
First Quarter
Dec 17
Full
Dec 25
Last Quarter

Hourly Weather History & Observations

Time (MST) Temp. Windchill Dew Point Humidity Pressure Visibility Wind Dir Wind Speed Gust Speed Precip Events Conditions
12:51 AM 21.9 °F 11.7 °F 16.0 °F 78% 30.46 in 10.0 mi NW 9.2 mph - N/A   Overcast
1:51 AM 21.9 °F 11.7 °F 16.0 °F 78% 30.47 in 10.0 mi NNW 9.2 mph - N/A   Overcast
1:58 AM 21.9 °F 9.8 °F 16.0 °F 78% 30.37 in 10.0 mi NNW 12.7 mph - N/A   Overcast
2:51 AM 21.0 °F 8.6 °F 14.0 °F 74% 30.48 in 10.0 mi North 12.7 mph - N/A   Overcast
3:51 AM 19.9 °F 9.3 °F 14.0 °F 78% 30.49 in 10.0 mi NNW 9.2 mph - N/A   Overcast
4:51 AM 18.0 °F 7.7 °F 14.0 °F 84% 30.51 in 10.0 mi NNW 8.1 mph - N/A   Mostly Cloudy
5:51 AM 17.1 °F - 12.0 °F 81% 30.52 in 10.0 mi Calm Calm - N/A   Mostly Cloudy
6:19 AM 16.0 °F 10.4 °F 12.0 °F 84% 30.41 in 10.0 mi NE 3.5 mph - N/A   Scattered Clouds
6:51 AM 10.9 °F - 7.0 °F 84% 30.56 in 10.0 mi Calm Calm - N/A   Clear
7:51 AM 12.0 °F - 8.1 °F 84% 30.56 in 10.0 mi Calm Calm - N/A   Clear
8:51 AM 19.0 °F - 14.0 °F 81% 30.55 in 10.0 mi Calm Calm - N/A   Clear
9:26 AM 19.9 °F - 14.0 °F 78% 30.44 in 10.0 mi Calm Calm - N/A   Mostly Cloudy
9:42 AM 21.0 °F 14.6 °F 12.9 °F 71% 30.44 in 10.0 mi SSE 4.6 mph - N/A   Scattered Clouds
9:51 AM 21.0 °F 16.2 °F 12.9 °F 71% 30.55 in 10.0 mi South 3.5 mph - N/A   Partly Cloudy
10:51 AM 23.0 °F - 12.0 °F 63% 30.53 in 10.0 mi Calm Calm - N/A   Clear
11:51 AM 26.1 °F 17.6 °F 10.0 °F 51% 30.50 in 10.0 mi SE 8.1 mph - N/A   Clear
12:51 PM 28.9 °F 22.8 °F 8.1 °F 41% 30.46 in 10.0 mi South 5.8 mph - N/A   Clear
1:51 PM 30.9 °F 24.3 °F 8.1 °F 38% 30.43 in 10.0 mi South 6.9 mph - N/A   Clear
2:51 PM 30.9 °F 22.8 °F 9.0 °F 40% 30.41 in 10.0 mi SSE 9.2 mph - N/A   Clear
3:51 PM 28.0 °F 20.0 °F 12.0 °F 51% 30.39 in 10.0 mi SE 8.1 mph - N/A   Clear
4:51 PM 19.9 °F 12.1 °F 10.9 °F 68% 30.39 in 10.0 mi SE 5.8 mph - N/A   Clear
5:51 PM 18.0 °F 8.7 °F 10.0 °F 71% 30.37 in 10.0 mi SE 6.9 mph - N/A   Clear
6:51 PM 19.9 °F 8.6 °F 10.9 °F 68% 30.36 in 10.0 mi SE 10.4 mph - N/A   Clear
7:51 PM 21.9 °F 9.8 °F 10.0 °F 60% 30.32 in 10.0 mi SE 12.7 mph - N/A   Clear
8:51 PM 23.0 °F 10.6 °F 10.9 °F 60% 30.27 in 10.0 mi SE 13.8 mph - N/A   Clear
9:51 PM 24.1 °F 13.1 °F 14.0 °F 65% 30.24 in 10.0 mi SE 11.5 mph - N/A   Clear
10:51 PM 24.1 °F 11.5 °F 15.1 °F 69% 30.20 in 10.0 mi SE 15.0 mph - N/A   Clear
11:51 PM 23.0 °F 11.1 °F 15.1 °F 72% 30.17 in 10.0 mi SE 12.7 mph - N/A   Clear